Hourly Data Report for August 31, 2005

TORONTO CITY
ONTARIO

43°40'00.000" N
79°24'00.000" W
112.50 m
6158355
71508
XTO

Download Data

Hourly Data (August 2005)
Hourly Data Report for August 31, 2005
TIME
LST
Temp Definition
°C
Dew Point Definition
°C
Rel Hum Definition
%
Precip. Amount Definition
mm

Wind Dir Definition
10's deg

Wind Spd Definition
km/h
Visibility Definition
km
Stn Press Definition
kPa
Hmdx Definition


Wind Chill Definition


Weather Definition


00:00 21.2 20.9 98   LegendMM LegendMM   98.99 30   LegendNANA
01:00 20.5 20.0 97   LegendMM LegendMM   98.87 28   LegendNANA
02:00 20.6 20.2 98   LegendMM LegendMM   98.76 28   LegendNANA
03:00 20.0 19.6 98   LegendMM LegendMM   98.69 27   LegendNANA
04:00 19.6 19.2 98   LegendMM LegendMM   98.63     LegendNANA
05:00 19.7 19.3 98   LegendMM LegendMM   98.58     LegendNANA
06:00 19.5 18.9 96   LegendMM LegendMM   98.63     LegendNANA
07:00 19.2 18.4 95   LegendMM LegendMM   98.65     LegendNANA
08:00 19.9 19.2 96   LegendMM LegendMM   98.70     LegendNANA
09:00 20.4 19.1 92   LegendMM LegendMM   98.75 27   LegendNANA
10:00 21.6 19.2 86   LegendMM LegendMM   98.78 29   LegendNANA
11:00 22.8 19.3 81   LegendMM LegendMM   98.79 30   LegendNANA
12:00
13:00
14:00
15:00
16:00 24.4 18.7 71   LegendMM LegendMM   98.99 31   LegendNANA
17:00 24.7 18.2 67   LegendMM LegendMM   99.05 31   LegendNANA
18:00 23.4 17.4 69   LegendMM LegendMM   99.13 29   LegendNANA
19:00 22.8 17.3 71   LegendMM LegendMM   99.21 28   LegendNANA
20:00 21.8 16.4 71   LegendMM LegendMM   99.31 27   LegendNANA
21:00 21.0 16.2 74   LegendMM LegendMM   99.36 26   LegendNANA
22:00 20.0 16.0 78   LegendMM LegendMM   99.40 25   LegendNANA
23:00 19.3 16.3 83   LegendMM LegendMM   99.44     LegendNANA

Notes on Data Quality.

Legend

  • E = Estimated
  • M = Missing
  • NA = Not Available*
  • [empty] = Indicates an unobserved value
Date modified: